Regional Weather Roundup
Issued by NWS

Home | Current Version | Previous Version | Graphics & Text | Print | Product List | Glossary On
Versions: 1 2 3 4 5 6 7 8 9 10 11 12 13 14 15 16 17 18 19 20 21 22 23 24 25 26 27 28 29 30 31 32 33 34 35 36 37 38 39 40 41 42 43 44 45 46 47 48 49 50
000
ASUS43 KDMX 271807
RWRIA

WEATHER ROUNDUP FOR IOWA
NATIONAL WEATHER SERVICE DES MOINES IA
1200 PM CST FRI FEB 27 2015

NOTE: "FAIR" INDICATES FEW OR NO CLOUDS BELOW 12,000 FEET WITH NO
SIGNIFICANT WEATHER AND/OR OBSTRUCTIONS TO VISIBILITY.

* - THESE STATIONS ARE NOT NWS STATIONS...THUS NOT UNDER NWS
QUALITY CONTROL.  THEY ALSO DO NOT REPORT WEATHER SUCH
AS PRECIPITATION OR FOG.

IAZ001>003-012>014-020>022-031>034-043>046-271900-
   NORTHWEST IOWA

CITY           SKY/WX    TMP DP  RH WIND       PRES   REMARKS
CARROLL *      SUNNY      7  -4  61 W6        30.60S WCI  -3
CHEROKEE *     SUNNY      6  -2  68 SW8       30.58F WCI  -7
DENISON *      SUNNY      5  -4  66 CALM      30.58S
LE MARS *      SUNNY      9   0  66 SW7       30.59S WCI  -3
ORANGE CITY *  SUNNY      9  -2  61 CALM      30.54F
SHELDON *      SUNNY      7  -2  66 W9        30.54S WCI  -7
SIOUX CITY     SUNNY     11  -2  56 SW5       30.60F WCI   3
6HR MIN TEMP:  -9; 6HR MAX TEMP:  11;

SPENCER        SUNNY      7  -2  66 W7        30.56S WCI  -5
6HR MIN TEMP: -16; 6HR MAX TEMP:   8;

STORM LAKE *   SUNNY      3  -2  78 W8        30.56S WCI -10
$$

IAZ055>058-069>071-079>083-090>094-271900-
   SOUTHWEST IOWA

CITY           SKY/WX    TMP DP  RH WIND       PRES   REMARKS
ATLANTIC *     SUNNY      7  -4  61 N6        30.61S WCI  -3
AUDUBON *      SUNNY      9  -2  61 NW3       30.59S
CLARINDA *     SUNNY     12   0  57 CALM      30.66S
COUNCIL BLFS * SUNNY     10   0  61 CALM      30.59S
CRESTON *      SUNNY      9  -2  61 NW3       30.60S
HARLAN  *      SUNNY      7   0  72 CALM      30.64S
LAMONI         SUNNY      7  -2  66 CALM      30.62S
6HR MIN TEMP:  -7; 6HR MAX TEMP:   8;

RED OAK *      SUNNY     10   0  61 CALM      30.64S
SHENANDOAH *   MOSUNNY   12   0  57 CALM      30.65S
$$

IAZ047>049-059>061-072>074-084-271900-
   CENTRAL IOWA

CITY           SKY/WX    TMP DP  RH WIND       PRES   REMARKS
AMES           SUNNY      5  -2  72 W7        30.63S WCI  -7
6HR MIN TEMP: -15; 6HR MAX TEMP:   5;

ANKENY *       SUNNY      7  -4  61 W6        30.65S WCI  -3
CHARITON *     MOSUNNY    9  -2  61 E3        30.63S
DES MOINES     MOSUNNY    8  -4  58 W5        30.63F WCI   0
6HR MIN TEMP:  -7; 6HR MAX TEMP:   9;

GRINNELL*      SUNNY      4  -4  69 W3        30.63S
KNOXVILLE *    SUNNY      7  -4  61 NW3       30.63S
MARSHALLTOWN   SUNNY      2  -4  76 CALM      30.62S
6HR MIN TEMP: -19; 6HR MAX TEMP:   2;

PELLA *        SUNNY      9   0  68 N6        30.66S WCI  -1
PERRY *          N/A      9   0  66 W3        30.63S
$$

IAZ004>006-015-016-023>025-035-036-271900-
   NORTH CENTRAL IOWA

CITY           SKY/WX    TMP DP  RH WIND       PRES   REMARKS
ALGONA *       MOSUNNY    7  -2  66 W8        30.58S WCI  -6
CLARION *      SUNNY      1  -2  85 SW5       30.60S WCI  -8
ESTHERVILLE    SUNNY      6  -2  69 W7        30.54F WCI  -6
6HR MIN TEMP: -14; 6HR MAX TEMP:   6;

FORT DODGE *   SUNNY      7  -2  66 W5        30.61S WCI  -2
MASON CITY     SUNNY      3  -4  72 W5        30.59S WCI  -6
6HR MIN TEMP: -18; 6HR MAX TEMP:   3;

FOREST CITY *  SUNNY      5  -6  61 SW5       30.57S WCI  -4
IOWA FALLS *     N/A      5  -2  72 W3        30.61F HAZE
$$

IAZ007>011-017>019-026>030-037>042-050>054-066-271900-
   NORTHEAST IOWA

CITY           SKY/WX    TMP DP  RH WIND       PRES   REMARKS
CEDAR RAPIDS   SUNNY     -2  -7  79 W5        30.63F WCI -12
6HR MIN TEMP: -20; 6HR MAX TEMP:  -2;

CHARLES CITY * SUNNY      3  -2  78 CALM      30.60S
CLINTON *      SUNNY      1  -6  71 W3        30.67F
DECORAH *      SUNNY      5  -8  56 VRB5      30.57S WCI  -4
DUBUQUE        SUNNY      6  -5  60 SW7       30.59S WCI  -6
6HR MIN TEMP: -21; 6HR MAX TEMP:   6;

MONTICELLO *   SUNNY      3  -8  60 CALM      30.64S
OELWEIN *      SUNNY      0  -6  78 CALM      30.61S
WATERLOO       SUNNY      5  -6  60 N3        30.63S
6HR MIN TEMP: -23; 6HR MAX TEMP:   5; 6HR PCP:  0.01;

$$

IAZ064-065-067-068-078-271900-
   EAST CENTRAL IOWA

CITY           SKY/WX    TMP DP  RH WIND       PRES   REMARKS
DAVENPORT      SUNNY      1  -7  68 W6        30.65F WCI -10
6HR MIN TEMP: -19; 6HR MAX TEMP:   1; 6HR PCP: TRACE;

IOWA CITY      SUNNY      2  -5  72 SW7       30.68S WCI -11
6HR MIN TEMP: -14; 6HR MAX TEMP:   2;

MT. PLEASANT * SUNNY      7  -4  60 CALM      30.66F
MUSCATINE *    SUNNY      5  -6  61 CALM      30.69F
QUAD CITIES    SUNNY     12  -4  48 NW5       30.66S WCI   4
6HR MIN TEMP: -13; 6HR MAX TEMP:  12;

$$

IAZ062-063-075>077-085>089-095>099-271900-
   SOUTHEAST IOWA

CITY           SKY/WX    TMP DP  RH WIND       PRES   REMARKS
BURLINGTON     SUNNY      8  -3  61 CALM      30.66F
6HR MIN TEMP: -15; 6HR MAX TEMP:   8;

FAIRFIELD *    SUNNY      3  -6  66 NW3       30.66S
FORT MADISON * SUNNY      7  -2  66 NW3       30.67S
KEOKUK *       SUNNY      9  -4  56 CALM      30.66S
OSKALOOSA *      N/A      6  -3  68 CALM      30.65S
CENTERVILLE *  SUNNY      9   0  66 W3        30.64S
OTTUMWA        SUNNY      8   0  69 CALM      30.65S
6HR MIN TEMP: -10; 6HR MAX TEMP:   8; 6HR PCP: TRACE;

WASHINGTON *   SUNNY      5   0  78 W5        30.66S WCI  -4
$$

ABBREVIATIONS USED IN REMARKS
   TC - TEMPERATURES IN CELSIUS
  WCI - WIND CHILL INDEX
   HX - HEAT INDEX
  VSB - VISIBILITY
$$



USA.gov is the U.S. government's official web portal to all federal, state and local government web resources and services.